Location: Gand�
(15.0971°N, 12.6564°W)
Time: 15:06:15
(UTC+00:00)

Cosmos 1825 Rocket - Pass Details

Date: 07 August 2020
Orbit: 603 x 631 km, 82.5° (Epoch: 20 September)

Event Time Altitude Azimuth Distance (km) Brightness Sun altitude
Rises 05:34:31 0° 345° (NNW) 2,850 7.1 -14.5°
Reaches altitude 10° 05:36:48 10° 338° (NNW) 1,944 6.1 -14.0°
Maximum altitude 05:40:52 42° 267° (W) 859 3.8 -13.1°
Drops below altitude 10° 05:44:55 10° 196° (SSW) 1,942 5.8 -12.2°
Sets 05:47:13 0° 189° (S) 2,845 6.7 -11.7°
